Date,TemperatureHighF,TemperatureAvgF,TemperatureLowF,DewpointHighF,DewpointAvgF,DewpointLowF,HumidityHigh,HumidityAvg,HumidityLow,PressureMaxIn,PressureMinIn,WindSpeedMaxMPH,WindSpeedAvgMPH,GustSpeedMaxMPH,PrecipitationSumIn
2013-5-1,80.5,71.0,62.6,-99.9,-99.9,-99.9,0,0,100,30.08,29.84,16,1,31,0.00
2013-5-2,82.2,71.0,65.3,-99.9,-99.9,-99.9,0,0,100,30.15,30.08,18,1,24,0.00
2013-5-3,83.0,73.7,64.8,-99.9,-99.9,-99.9,0,0,100,30.08,29.80,15,0,21,0.00
2013-5-4,79.9,69.8,60.0,-99.9,-99.9,-99.9,0,0,100,29.80,29.57,18,2,33,0.00
2013-5-5,64.0,61.0,58.5,-99.9,-99.9,-99.9,0,0,100,29.76,29.57,14,1,24,0.00
2013-5-6,65.0,60.5,56.1,-99.9,-99.9,-99.9,0,0,100,29.92,29.76,17,1,23,0.00
2013-5-7,67.3,61.5,57.9,-99.9,-99.9,-99.9,0,0,100,29.99,29.90,17,2,25,0.00
2013-5-8,63.9,58.4,55.5,-99.9,-99.9,-99.9,0,0,100,30.08,29.98,14,1,21,0.00
2013-5-9,66.0,58.7,53.8,-99.9,-99.9,-99.9,0,0,100,30.11,30.04,17,1,26,0.00
2013-5-10,71.0,60.8,53.1,-99.9,-99.9,-99.9,0,0,100,30.12,30.05,18,1,21,0.00
2013-5-11,78.4,65.2,54.7,-99.9,-99.9,-99.9,0,0,100,30.10,30.03,16,1,23,0.00
2013-5-12,77.8,68.3,58.3,-99.9,-99.9,-99.9,0,0,100,30.11,30.01,21,2,30,0.00
2013-5-13,76.8,65.0,56.6,-99.9,-99.9,-99.9,0,0,100,30.04,29.92,18,2,26,0.00
2013-5-14,70.3,63.1,57.1,-99.9,-99.9,-99.9,0,0,100,29.96,29.87,25,5,35,0.00
2013-5-15,67.1,59.6,51.4,-99.9,-99.9,-99.9,0,0,100,29.99,29.92,27,5,43,0.00
2013-5-16,65.3,61.0,57.9,-99.9,-99.9,-99.9,0,0,100,29.97,29.91,25,3,34,0.00
2013-5-17,64.4,58.9,53.8,-99.9,-99.9,-99.9,0,0,100,30.02,29.91,16,2,24,0.00
2013-5-18,71.8,61.4,52.7,-99.9,-99.9,-99.9,0,0,100,30.07,30.00,18,1,22,0.00
2013-5-19,76.5,66.5,56.3,-99.9,-99.9,-99.9,0,0,100,30.08,29.97,25,2,30,0.00
2013-5-20,79.3,70.0,62.3,-99.9,-99.9,-99.9,0,0,100,29.98,29.90,25,2,28,0.00
2013-5-21,68.6,62.9,54.9,-99.9,-99.9,-99.9,0,0,100,29.94,29.85,32,6,43,0.00
2013-5-22,64.6,55.8,48.4,-99.9,-99.9,-99.9,0,0,100,29.95,29.86,22,6,43,0.00
2013-5-23,65.7,57.5,50.1,-99.9,-99.9,-99.9,0,0,100,29.96,29.83,16,2,26,0.00
2013-5-24,66.4,59.2,52.5,-99.9,-99.9,-99.9,0,0,100,29.94,29.89,19,2,23,0.00
2013-5-25,66.3,58.2,50.8,-99.9,-99.9,-99.9,0,0,100,29.99,29.89,19,3,27,0.00
2013-5-26,66.0,60.0,55.5,-99.9,-99.9,-99.9,0,0,100,30.08,29.98,19,3,27,0.00
2013-5-27,61.9,58.2,54.4,-99.9,-99.9,-99.9,0,0,100,30.07,29.94,22,3,34,0.00
2013-5-28,69.3,61.5,56.9,-99.9,-99.9,-99.9,0,0,100,29.96,29.88,19,1,19,0.00
2013-5-29,70.0,62.9,58.8,-99.9,-99.9,-99.9,0,0,100,29.92,29.87,29,4,30,0.00
2013-5-30,74.0,63.8,54.0,-99.9,-99.9,-99.9,0,0,100,29.95,29.87,16,1,23,0.00
2013-5-31,81.5,68.4,55.5,-99.9,-99.9,-99.9,0,0,100,29.97,29.91,22,2,25,0.00